Flag for Germany Weather past 2 weeks in Hemer, North Rhine-Westphalia, Germany

Now
39 °F

Scattered clouds.


Feels Like: 28 °F
Forecast: 30 / 34 °F
Wind: 24 mph from Southwest

Location: Dortmund / Wickede

Current Time: Jan 29, 2015 at 1:40:25 PM

Latest Report: Jan 29, 2015 at 1:20 PM


Visibility: N/A

Pressure: 29.09 "Hg

Humidity: 65%

Dew point: 28 °F

Location of HemerLocation

Historic Weather in Hemer — Graph

°F

Hemer temperature yesterday

Maximum temperature yesterday: 43 °F (at 1:50 PM)
Minimum temperature yesterday: 36 °F (at 7:50 PM)
Average temperature yesterday: 39 °F

Past Weeks' High & Low Weather Summary

 TemperatureHumidityPressure
High50 °F (Jan 15, 12:50 PM)93% (Jan 17, 7:20 AM)30.39 "Hg (Jan 17, 7:20 AM)
Low27 °F (Jan 21, 8:20 AM)60% (Jan 21, 12:20 PM)29.12 "Hg (Jan 29, 12:20 PM)
Average36 °F81%29.93 "Hg
* Reported Jan 14 12:20 PM — Jan 29 12:20 PM, Hemer, Weather by CustomWeather, © 2014

Note: Actual official high and low records may vary slightly from our data, if they occured in-between our weather recording intervals... More about our weather records

Advertising

Hemer weather history for previous 24 hours

 ConditionsComfort  
Time TempWeatherWind HumidityBarometerVisibility
12:20 PM
Jan 29
37 °FScattered clouds.21 mph70%29.12 "HgN/A
11:50 AM37 °FScattered clouds.21 mph70%29.15 "HgN/A
11:20 AM37 °FScattered clouds.23 mph70%29.15 "HgN/A
10:50 AM37 °FScattered clouds.21 mph70%29.18 "HgN/A
10:20 AM36 °FScattered clouds.21 mph75%29.21 "HgN/A
9:50 AM36 °FScattered clouds.23 mph75%29.21 "HgN/A
9:20 AM36 °FScattered clouds.21 mph75%29.21 "HgN/A
8:50 AM36 °FScattered clouds.24 mph75%29.24 "HgN/A
8:20 AM36 °FScattered clouds.24 mph75%29.24 "HgN/A
7:50 AM36 °FPassing clouds.22 mph75%29.27 "HgN/A
7:20 AM36 °FPassing clouds.22 mph75%29.27 "HgN/A
6:50 AM36 °FPassing clouds.21 mph70%29.27 "HgN/A
6:20 AM36 °FPassing clouds.22 mph70%29.30 "HgN/A
5:50 AM36 °FPassing clouds.20 mph70%29.30 "HgN/A
5:20 AM34 °FPassing clouds.21 mph75%29.33 "HgN/A
10:50 PM
Jan 28
36 °FClear.18 mph81%29.42 "Hg10 mi
10:20 PM36 °FClear.18 mph81%29.42 "Hg10 mi
9:50 PM36 °FClear.18 mph87%29.42 "Hg10 mi
9:20 PM36 °FPassing clouds.16 mph87%29.42 "HgN/A
8:50 PM36 °FPassing clouds.18 mph87%29.42 "HgN/A
8:20 PM36 °FPassing clouds.17 mph87%29.42 "HgN/A
7:50 PM36 °FSprinkles. Passing clouds.15 mph87%29.42 "HgN/A
7:20 PM37 °FLight rain. Passing clouds.22 mph81%29.42 "HgN/A
6:50 PM41 °FThundershowers. Passing clouds.23 mph81%29.36 "Hg3 mi
6:20 PM39 °FLight rain. Passing clouds.22 mph87%29.36 "HgN/A
5:50 PM39 °FLight rain. Partly cloudy.25 mph87%29.36 "HgN/A
5:20 PM39 °FLight rain. Passing clouds.25 mph81%29.39 "Hg4 mi
4:50 PM39 °FLight rain. Partly sunny.25 mph81%29.42 "Hg4 mi
4:20 PM39 °FLight rain. Broken clouds.24 mph81%29.42 "Hg4 mi
3:50 PM41 °FPartly sunny.28 mph76%29.45 "HgN/A
3:20 PM41 °FPartly sunny.26 mph70%29.47 "HgN/A
2:50 PM41 °FScattered clouds.25 mph70%29.50 "HgN/A
2:20 PM41 °FScattered clouds.25 mph76%29.56 "HgN/A
1:50 PM43 °FScattered clouds.25 mph71%29.59 "HgN/A
1:20 PM41 °FScattered clouds.24 mph76%29.65 "HgN/A
Weather by CustomWeather, © 2014

See weather overviewHow to use our weather pages